Location: Marse
(42.1502°N, 110.9866°W)
Time: 20:03:29
(UTC+00:00)

ZACube-1 - Pass Details

Date: 02 July 2022
Orbit: 582 x 661 km, 97.6° (Epoch: 07 August)

Event Time Altitude Azimuth Distance (km) Brightness Sun altitude
Rises 10:36:08 0° 23° (NNE) 2,958 ? -11.7°
Reaches altitude 10° 10:38:34 10° 34° (NNE) 2,055 ? -11.4°
Maximum altitude 10:42:33 30° 96° (E) 1,162 ? -10.9°
Drops below altitude 10° 10:46:32 10° 158° (SSE) 2,066 ? -10.3°
Sets 10:48:58 0° 169° (S) 2,977 ? -10.0°
